Regional Weather Roundup
Issued by NWS

Home | Current Version | Previous Version | Text Only | Print | Product List | Glossary Off
Versions: 1 2 3 4 5 6 7 8 9 10 11 12 13 14 15 16 17 18 19 20 21 22 23 24 25 26 27 28 29 30 31 32 33 34 35 36 37 38 39 40 41 42 43 44 45 46 47 48 49 50

000
ASUS43 KMPX 220601
RWRMN
WEATHER ROUNDUP FOR MINNESOTA
NATIONAL WEATHER SERVICE TWIN CITIES/CHANHASSEN MN
100 AM CDT TUE JUL 22 2014


NOTE: "FAIR" INDICATES FEW OR NO CLOUDS BELOW 12,000 FEET WITH NO
SIGNIFICANT WEATHER AND/OR OBSTRUCTIONS TO VISIBILITY. N/A MEANS
CURRENT SKY AND/OR WEATHER CONDITIONS ARE NOT AVAILABLE.

MNZ060>063-068>070-220700-
   Twin Cities Metro

CITY           SKY/WX    TMP DP  RH WIND       PRES   REMARKS
TWIN CITIES    MOCLDY    82  75  79 S12       29.81S
6HR MIN TEMP:  81; 6HR MAX TEMP:  88;

ST PAUL          N/A     80  74  81 SE10      29.80F
CRYSTAL        MOCLDY    82  74  76 S12       29.78F
BLAINE         MOCLDY    82  77  83 S13       29.79F HX  91
LAKEVILLE      CLOUDY    79  73  83 S12       29.82S
EDEN PRAIRIE   MOCLDY    82  76  81 S10       29.79S
6HR MIN TEMP:  81; 6HR MAX TEMP:  87;

SOUTH ST PAUL  MOCLDY    81  73  77 S9        29.80F
LAKE ELMO      MOCLDY    79  73  83 S12       29.83F
$$
MNZ001>005-007-008-013>017-022>024-027-028-220700-
   Northwest Minnesota

CITY           SKY/WX    TMP DP  RH WIND       PRES   REMARKS
BEMIDJI        LGT RAIN  66  65  96 SE6       29.72R
HALLOCK        LGT RAIN  64  63  94 NW8       29.81R
ROSEAU         RAIN      64  57  77 NE20G28   29.72F
WARROAD        CLOUDY    64  61  88 N10       29.77F
THIEF RVR FALL CLOUDY    64  63  94 N13       29.80R
FOSSTON        RAIN      64  63  94 W16       29.76R
DETROIT LAKES  CLOUDY    66  64  94 W16G22    29.79R
MOORHEAD       CLOUDY    68  68 100 N13G20    29.78F
PARK RAPIDS    CLOUDY    66  65  96 S12       29.75F
$$
MNZ006-009>011-018-025>026-220700-
   North Central Minnesota

CITY           SKY/WX    TMP DP  RH WIND       PRES   REMARKS
BAUDETTE       RAIN      65  64  97 N23G30    29.73F
FLAG ISLAND    RAIN      66  63  88 NE13      29.76F
INTL FALLS     RAIN      68  67  96 E3        29.69F FOG
6HR MIN TEMP:  67; 6HR MAX TEMP:  85; 6HR PCP:  1.08;

WASKISH        LGT RAIN  64  64 100 N14G31    29.63F
LONGVILLE      TSTM      66  64  94 NE5       29.71F
GRAND RAPIDS   CLOUDY    66  63  88 NW6       29.79F
CRANE LAKE     TSTM      75  73  94 S7        29.70F
ORR            CLOUDY    66  63  88 SW10G17   29.76R
COOK           TSTM      72  66  83 W24G35    29.81R
$$
MNZ012-019>021-037-220700-
   Northeast Minnesota

CITY           SKY/WX    TMP DP  RH WIND       PRES   REMARKS
DULUTH         CLOUDY    78  72  81 SW10      29.83R
6HR MIN TEMP:  78; 6HR MAX TEMP:  86; 6HR PCP: TRACE;

ELY            CLOUDY    77  72  83 S12G20    29.75F
HIBBING        HVY RAIN  74  69  85 W23G37    29.81R
EVELETH        TSTM      77  72  83 S13G18    29.77R
DULUTH HARBOR  CLOUDY    63  61  94 NW5       29.79R
TWO HARBORS    CLOUDY    73  68  83 SE6       29.77F
SILVER BAY     CLOUDY    72  72 100 S6        29.78S
GRAND MARAIS     N/A     59  58  96 NE6       29.81S
G MARAIS ARPRT MOCLDY    70  64  83 S6        29.86S FOG
$$
MNZ029>031-032-039>041-046>048-054>057-064-220700-
   West Central Minnesota

CITY           SKY/WX    TMP DP  RH WIND       PRES   REMARKS
FERGUS FALLS   CLOUDY    66  64  94 W7        29.83R
WHEATON        MOCLDY    64  63  94 CALM      29.87R
MORRIS         CLOUDY    66  64  94 CALM      29.83R
ALEXANDRIA     CLOUDY    67  50  55 SW6       29.84S
ELBOW LAKE     FAIR      66  64  95 W7        29.83R
WADENA         CLOUDY    64  63  94 S8        29.77F
GLENWOOD       CLOUDY    66  64  94 S5        29.83F
APPLETON       CLOUDY    72  64  78 NW6       29.84R
BENSON         CLOUDY    70  64  83 NE3       29.84R
MADISON        MOCLDY    77  66  69 N10G18    29.84R
WILLMAR        FAIR      79  73  83 NW3       29.83R
$$
MNZ033>034-036-042>043-049>051-058-059-220700-
   Central Minnesota

CITY           SKY/WX    TMP DP  RH WIND       PRES   REMARKS
ST CLOUD       CLOUDY    75  66  73 N9G20     29.80R
6HR MIN TEMP:  75; 6HR MAX TEMP:  88;

SAUK CENTRE    FAIR      66  65  97 S5        29.83R
PAYNESVILLE    CLOUDY    68  64  86 W3        29.84F
AITKIN         TSTM      70  63  78 CALM      29.78F
PINE RIVER     CLOUDY    66  64  94 S7        29.78F
BRAINERD       CLOUDY    67  64  90 CALM      29.77F
STAPLES        CLOUDY    64  64 100 S5        29.76R
LONG PRAIRIE   FAIR      66  64  94 S7        29.81R
LITCHFIELD     CLOUDY    81  73  78 NW5       29.83R
BUFFALO        CLOUDY    81  74  79 S8        29.80S
MAPLE LAKE     CLOUDY    81  77  86 S7        29.80S THUNDER
$$
MNZ037-044-045-052-053-220700-
   East Central Minnesota

CITY           SKY/WX    TMP DP  RH WIND       PRES   REMARKS
PRINCETON      CLOUDY    82  75  78 SE8       29.79S THUNDER
MORA           CLOUDY    77  72  83 CALM      29.81F THUNDER
CAMBRIDGE      CLOUDY    84  72  65 S8        29.78S THUNDER
RUSH CITY      CLOUDY    80  73  77 S6        29.81R THUNDER
MOOSE LAKE     TSTM      77  72  83 NW24G44   29.90R
HINCKLEY       CLOUDY    81  73  78 SW5       29.83R THUNDER
CLOQUET        CLOUDY    81  72  74 S10G21    29.82R
MCGREGOR       CLOUDY    68  63  83 CALM      29.86R THUNDER
$$
MNZ071>073-080-081-089-090-097-098-220700-
   Southwest Minnesota

CITY           SKY/WX    TMP DP  RH WIND       PRES   REMARKS
MONTEVIDEO     CLOUDY    77  72  83 N13G18    29.83R
GRANITE FALLS  MOCLDY    77  74  90 NW3       29.82R
CANBY          PTCLDY    78  74  85 NW6       29.85R
MARSHALL       PTCLDY    81  75  83 SW10      29.79S
REDWOOD FALLS  PTCLDY    79  76  90 S13       29.78R
OLIVIA         MOCLDY    79  75  89 SW3       29.80R
PIPESTONE      CLEAR     79  75  89 SW6       29.85S
WINDOM         CLEAR     81  77  89 S8        29.84R
WORTHINGTON    CLEAR     79  75  89 SW12      29.86R
TRACY          CLEAR     80  76  89 SW12G17   29.82S
SLAYTON        CLEAR     79  76  91 SW6       29.85S
$$
MNZ065>067-074>077-082>085-091>093-220700-
   South Central Minnesota

CITY           SKY/WX    TMP DP  RH WIND       PRES   REMARKS
MANKATO        CLEAR     81  73  78 S10G16    29.82S
NEW ULM        PTCLDY    79  79 100 S10       29.81R
ST JAMES       CLEAR     82  75  78 S12       29.82R
FAIRMONT       PTCLDY    81  73  78 S13G18    29.84R
GLENCOE        MOCLDY    82  74  77 S7G16     29.79S
FARIBAULT      MOCLDY    82  72  69 S12       29.84S
OWATONNA       MOCLDY    81  73  78 S14G20    29.85R
WASECA         PTCLDY    79  70  73 S13       29.86S
ALBERT LEA     MOCLDY    81  75  83 S12       29.86F
$$
MNZ078>079-086>088-094>096-220700-
   Southeast Minnesota

CITY           SKY/WX    TMP DP  RH WIND       PRES   REMARKS
ROCHESTER      CLOUDY    78  71  79 S16G24    29.90R
6HR MIN TEMP:  78; 6HR MAX TEMP:  83;

RED WING       CLOUDY    81  72  74 S9        29.84R
STANTON        CLOUDY    81  73  77 S14G21    29.81S
DODGE CENTER   MOCLDY    79  73  83 S17G25    29.87F
WINONA         MOCLDY    79  70  73 SE8       29.90S
AUSTIN         MOCLDY    79  73  83 S13G18    29.88S
PRESTON        MOCLDY    76  74  94 S14       29.92S
$$
ABBREVIATIONS USED IN REMARKS
   TC - TEMPERATURES IN CELSIUS
  WCI - WIND CHILL INDEX
   HX - HEAT INDEX
  VSB - VISIBILITY
$$



USA.gov is the U.S. government's official web portal to all federal, state and local government web resources and services.